FENGYUN 1C DEB, 32230

Orbit data source: Space-Track

FENGYUN 1C DEB, 32230 is space debris in SSO originally from a launch on Mon, 10 May 1999 UTC launched from the Taiyaun Space Center, China (TSC). Fengyun 1C debris stems from the Chinese weather satellite Fengyun-1C, which was intentionally destroyed by a Chinese anti-satellite missile in 2007. This event dramatically increased the amount of space debris, with thousands of trackable fragments posing hazards to satellites and human spaceflight. The Fengyun 1C debris cloud has become a focal point in discussions about space sustainability and the need for international regulations to prevent the creation of new debris.

Loading next visibility...
Identifier
32230, 1999-025CWC
Orbit
SSO
Country
Flag of CNCN / PRC
Related business
Manufacturer
Unknown
Mission
Spacecraft
Bus & Motor
Unknown
Mass
Unknown
Launch date (UTC)
1999-05-10 (26 years ago)
Launch vehicle
Unknown
Launch site
Taiyaun Space Center, China (TSC)
Object type
Payload
Rocket body
Debris
Shape & HBR
Unknown shape, 0.1 m
Radar Cross Section
Small (<0.1 m²)

Expand to show TLE details & history
Last TLE update: 2 days ago

TLE from 2 days ago
0 FENGYUN 1C DEB
1 32230U 99025CWC 25308.90425866  .00015618  00000-0  36020-2 0  9997
2 32230  98.8717  96.1839 0054976 203.4208 308.7149 14.54436013601198
Epoch: 2025-11-04T21:42Z
TLE epoch observation values (Epoch: 2025-11-04T21:42:07.948Z)
Latitude
28.03314°
Longitude
-88.99218°
Altitude
690.42 km
Speed
7.526 km/s
True Right ascension
18h 43m 42s
True Declination
27° 53' 22"
Sunlit
Object was in daylight at epoch
Visualization orbit readout
Latitude
Unknown
Longitude
Unknown
Altitude
Unknown
Speed
Unknown
Apparent Right ascension
Unknown
Apparent Declination
Unknown
Sunlit
N/A
Visualization observer readout
Local Sidereal Time
08:40:35
Azimuth
Unknown
Elevation
Unknown
Doppler factor
Unknown
Orbital elements
Apogee altitude
747.276 km
Perigee altitude
669.359 km
Semi-major axis
7,086.454 km
Eccentricity
0.0055
Inclination
98.8717°
RAAN
96.1839°
Arg. of periapsis
203.4208°
True anomaly
308.22123°
Mean anomaly
308.7149°
Eccentric anomaly
308.46828°
Mean motion
3.63831 °/min
Orbital period
98.95 mins
BSTAR
0.003602
Loading maneuver chart data...
Computing Atmospheric mass density...

Documentation

Showing up to 5 results
|